Skip Page Navigation
NASA JPL Caltech
NASA Logo - Jet Propulsion Laboratory + View the NASA Portal
+ Center for Near-Earth Object Studies
JPL Home Earth Solar System Stars & Galaxies Technology
JPL Solar System Dynamics
BODIES ORBITS EPHEMERIDES TOOLS PHYSICAL DATA DISCOVERY FAQ SITE MAP
JPL Small-Body Database Browser
Search: [ help ]  
101791 (1999 GV44)
Classification: Main-belt Asteroid          SPK-ID: 2101791
Ephemeris | Orbit Diagram | Orbital Elements | Mission Design | Physical Parameters | Discovery Circumstances ]

[ show orbit diagram ]
Orbital Elements at Epoch 2459200.5 (2020-Dec-17.0) TDB
Reference: JPL 23 (heliocentric ecliptic J2000)
 Element Value Uncertainty (1-sigma)   Units 
e .01707908679899064 4.2921e-08  
a 2.619571356975085 1.1576e-08 au
q 2.574831470393158 1.1276e-07 au
i 8.508622634744734 3.8481e-06 deg
node 76.18147790086816 2.8115e-05 deg
peri 298.8409250429289 0.00011268 deg
M 225.867737548424 0.0001106 deg
tp 2459777.498289617359
(2022-Jul-16.99828962)
0.00047633 TDB
period 1548.616123113852
4.24
1.0265e-05
2.81e-08
d
yr
n .232465615349617 1.5409e-09 deg/d
Q 2.664311243557012 1.1774e-08 au
  Orbit Determination Parameters
   # obs. used (total)      1322  
   data-arc span      11552 days (31.63 yr)  
   first obs. used      1988-11-03  
   last obs. used      2020-06-20  
   planetary ephem.      DE441  
   SB-pert. ephem.      SB441-N16  
   condition code      0  
   norm. resid. RMS      .49317  
   source      ORB  
   producer      Otto Matic  
   solution date      2021-Apr-13 15:38:37  

Additional Information
 Earth MOID = 1.58859 au 
 Jupiter MOID = 2.4066 au 
 T_jup = 3.390 
[ show covariance matrix ]

Ephemeris | Orbit Diagram | Orbital Elements | Mission Design | Physical Parameters | Discovery Circumstances ]

Physical Parameter Table
Parameter Symbol Value Units Sigma Reference Notes
absolute magnitude H 14.58   n/a E2021B55  

101791 (1999 GV44)          Discovered 1999-Apr-12 by LINEAR at Socorro
Reference: 20051019/Numbers.arcLast Updated: 2005-10-26

Alternate Designations
 1999 GV44 = 1988 VM12 = 1991 LH3 = 2001 UQ51 
Ephemeris | Orbit Diagram | Orbital Elements | Mission Design | Physical Parameters | Discovery Circumstances ]
ABOUT SSD CREDITS/AWARDS PRIVACY/COPYRIGHT GLOSSARY LINKS
FirstGov 2021-Apr-19 22:10 UT
(server date/time)  
NASA Home Page
Site Manager:   Ryan S. Park
Webmaster  Alan B. Chamberlin